Showing default

ARCTIC WEATHER SATELLITE, 60543

Orbit data source: Space-Track

ARCTIC WEATHER SATELLITE, 60543 is a payload satellite owned by ESA (NO) in SSO that was launched on Fri, 16 Aug 2024 UTC via an FALCON 9 launch vehicle from the Air Force Western Test Range (AFWTR). Payload-class satellites include a variety of spacecraft equipped with specific instruments for various scientific and technological missions. These include communications satellites like Starlink; space stations such as the ISS; scientific satellites like the Hubble; Earth observation satellites from companies like Planet Labs, Umbra, and HawkEye 360; GPS; miniature CubeSats for education and research; and military/defense satellites.

Loading next visibility...
Identifier
60543, 2024-149CD
Orbit
SSO
Country
Flag of NONO / NOR
Related business
Manufacturer
OHB-SE
Mission
Operational Civil Earth Obs Sci
Bus & Motor
INNOSAT, Unknown motor
Mass
125 kg wet, ~120 kg dry
Launch date (UTC)
2024-08-16 (1 year ago)
Launch vehicle
FALCON 9
Launch site
Air Force Western Test Range (AFWTR)
Object type
Payload
Rocket body
Debris
Shape & HBR
Box + 2 Pan, 2.6 m
Radar Cross Section
2.380 m², Medium (>0.1 m² and < 1m²)

Expand to show TLE details & history
Last TLE update: 14 hours ago

TLE from 14 hours ago
0 ARCTIC WEATHER SATELLITE
1 60543U 24149CD  25289.14512899  .00001864  00000-0  19993-3 0  9996
2 60543  97.7082   1.2144 0002283 161.1459 198.9844 14.89796119 62968
Epoch: 2025-10-16T03:28Z
TLE epoch observation values (Epoch: 2025-10-16T03:28:59.144Z)
Latitude
-0.00001°
Longitude
-75.94109°
Altitude
603.119 km
Speed
7.557 km/s
True Right ascension
00h 04m 51s
True Declination
0° 00' 00"
Sunlit
Object was in full shadow at epoch
Visualization orbit readout
Latitude
Unknown
Longitude
Unknown
Altitude
Unknown
Speed
Unknown
Apparent Right ascension
Unknown
Apparent Declination
Unknown
Sunlit
N/A
Visualization observer readout
Local Sidereal Time
12:32:40
Azimuth
Unknown
Elevation
Unknown
Doppler factor
Unknown
Orbital elements
Apogee altitude
597.183 km
Perigee altitude
593.999 km
Semi-major axis
6,973.728 km
Eccentricity
0.00023
Inclination
97.7082°
RAAN
1.2144°
Arg. of periapsis
161.1459°
True anomaly
198.97589°
Mean anomaly
198.9844°
Eccentric anomaly
198.98015°
Mean motion
3.72688 °/min
Orbital period
96.6 mins
BSTAR
0.00019993
Loading maneuver chart data...
Computing Atmospheric mass density...
Loading historical data...
Loading historical data...
Loading historical data...
Loading historical data...
Loading historical data...
Loading historical data...
Loading historical data...

Documentation

Showing up to 5 results
|